Location: Brunsbüttel
(52.3892°N, 10.6138°E)
Time: 09:57:59
(UTC+00:00)

Cosmos 1980 Rocket - Pass Details

Date: 19 May 2025
Orbit: 829 x 848 km, 71.0° (Epoch: 23 June)

Event Time Altitude Azimuth Distance (km) Brightness Sun altitude
Rises 20:45:07 0° 328° (NNW) 3,384 7.6 -10.7°
Reaches altitude 10° 20:47:34 10° 330° (NNW) 2,447 6.2 -10.9°
Maximum altitude 20:53:12 83° 58° (ENE) 844 2.2 -11.4°
Enters shadow 20:57:45 16° 147° (SSE) 2,042 3.5 -11.8°
